logo tempoitalia

Diretta Meteo Gooding, Stati Uniti (USA)lunedì 31 agosto ore 00:35

Mappa
Sereno 13 °C Sereno 24 Ore: T.min 9 T.max 25
Ponente Sud-Ovest Km/h 16.7 Punto di rugiada: -7 °C Umidità: 24% Visibilità: 10 Km
Il sole sorge alle: 07:02 Il sole tramonta alle: 20:15
31 Agosto 2026 00:35 tempo osservato: Sereno Sereno 13 24 1018 vento: Nord SO 16.7
31 Agosto 2026 00:15 tempo osservato: Sereno Sereno 14 24 1018 vento: Nord S/SO 16.7
30 Agosto 2026 23:55 tempo osservato: Sereno Sereno 13 28 1018 vento: Nord S 16.7
30 Agosto 2026 23:35 tempo osservato: Sereno Sereno 13 28 1018 vento: Nord S/SO 14.8
30 Agosto 2026 23:15 tempo osservato: Sereno Sereno 13 30 1018 vento: Nord S/SO 13
30 Agosto 2026 22:55 tempo osservato: Sereno Sereno 13 32 1018 vento: Nord S 13
30 Agosto 2026 22:35 tempo osservato: Sereno Sereno 14 26 1018 vento: Nord S/SO 13
30 Agosto 2026 22:15 tempo osservato: Sereno Sereno 15 24 1018 vento: Nord SO 11.1
30 Agosto 2026 21:55 tempo osservato: Sereno Sereno 16 24 1018 vento: Nord O 9.3
30 Agosto 2026 21:35 tempo osservato: Sereno Sereno 17 21 1017 vento: Nord O 14.8
30 Agosto 2026 21:15 tempo osservato: Sereno Sereno 16 23 1017 vento: Nord O/SO 11.1
30 Agosto 2026 20:55 tempo osservato: Sereno Sereno 17 23 1017 vento: Nord O 16.7
30 Agosto 2026 20:35 tempo osservato: Sereno Sereno 18 22 1017 vento: Nord O 14.8
30 Agosto 2026 20:15 tempo osservato: Sereno Sereno 19 20 1017 vento: Nord O 14.8
30 Agosto 2026 19:55 tempo osservato: Sereno Sereno 20 19 1017 vento: Nord O 14.8
30 Agosto 2026 19:35 tempo osservato: Sereno Sereno 21 19 1017 vento: Nord O 13
30 Agosto 2026 19:15 tempo osservato: Sereno Sereno 23 16 1017 vento: Nord O 20.3
30 Agosto 2026 18:55 tempo osservato: Sereno Sereno 23 14 1017 vento: Nord O 22.2
30 Agosto 2026 18:35 tempo osservato: Sereno Sereno 24 14 1017 vento: Nord O 22.2
30 Agosto 2026 18:15 tempo osservato: Sereno Sereno 24 14 1017 vento: Nord O 24
30 Agosto 2026 17:55 tempo osservato: Sereno Sereno 24 13 1017 vento: Nord O 20.3
30 Agosto 2026 17:35 tempo osservato: Sereno Sereno 25 12 1017 vento: Nord O 25.9
30 Agosto 2026 17:15 tempo osservato: Sereno Sereno 24 13 1017 vento: Nord O/NO 24
30 Agosto 2026 16:55 tempo osservato: Sereno Sereno 24 15 1018 vento: Nord O 24
30 Agosto 2026 16:35 tempo osservato: Sereno Sereno 24 15 1018 vento: Nord O 25.9
30 Agosto 2026 16:05 tempo osservato: Sereno Sereno 24 16 1018 vento: Nord O 29.6
30 Agosto 2026 15:55 tempo osservato: Sereno Sereno 24 16 1018 vento: Nord O 25.9
30 Agosto 2026 15:25 tempo osservato: Sereno Sereno 23 21 1019 vento: Nord O 29.6
30 Agosto 2026 15:15 tempo osservato: Sereno Sereno 23 21 1019 vento: Nord O 24
30 Agosto 2026 14:45 tempo osservato: Sereno Sereno 22 24 1019 vento: Nord O 25.9
30 Agosto 2026 14:35 tempo osservato: Sereno Sereno 22 24 1019 vento: Nord O/SO 24
30 Agosto 2026 14:15 tempo osservato: Sereno Sereno 21 26 1019 vento: Nord O/SO 24
30 Agosto 2026 13:55 tempo osservato: Sereno Sereno 21 26 1020 vento: Nord O 22.2
30 Agosto 2026 13:35 tempo osservato: Sereno Sereno 20 26 1020 vento: Nord O 25.9
30 Agosto 2026 13:15 tempo osservato: Sereno Sereno 20 28 1020 vento: Nord O/SO 25.9
30 Agosto 2026 12:55 tempo osservato: Sereno Sereno 19 29 1020 vento: Nord O 24
30 Agosto 2026 12:35 tempo osservato: Sereno Sereno 19 29 1020 vento: Nord O/SO 27.8
30 Agosto 2026 12:15 tempo osservato: Sereno Sereno 18 29 1020 vento: Nord O 25.9
30 Agosto 2026 11:55 tempo osservato: Sereno Sereno 18 31 1020 vento: Nord O/SO 24
30 Agosto 2026 11:35 tempo osservato: Sereno Sereno 18 31 1020 vento: Nord O/SO 22.2
30 Agosto 2026 11:15 tempo osservato: Sereno Sereno 17 36 1020 vento: Nord O/SO 20.3
30 Agosto 2026 10:55 tempo osservato: Sereno Sereno 16 38 1020 vento: Nord O/SO 20.3
30 Agosto 2026 10:35 tempo osservato: Sereno Sereno 15 44 1020 vento: Nord O 22.2
30 Agosto 2026 10:15 tempo osservato: Sereno Sereno 14 47 1020 vento: Nord O/SO 18.5
30 Agosto 2026 09:55 tempo osservato: Sereno Sereno 13 50 1020 vento: Nord O/SO 20.3
30 Agosto 2026 09:35 tempo osservato: Sereno Sereno 13 47 1020 vento: Nord O/SO 22.2
30 Agosto 2026 09:15 tempo osservato: Sereno Sereno 12 54 1020 vento: Nord O/SO 22.2
30 Agosto 2026 08:55 tempo osservato: Sereno Sereno 11 57 1020 vento: Nord SO 18.5
30 Agosto 2026 08:35 tempo osservato: Sereno Sereno 11 57 1020 vento: Nord O/SO 18.5
30 Agosto 2026 08:15 tempo osservato: Sereno Sereno 10 61 1020 vento: Nord SO 18.5
30 Agosto 2026 07:55 tempo osservato: Sereno Sereno 10 57 1019 vento: Nord SO 20.3
30 Agosto 2026 07:35 tempo osservato: Sereno Sereno 9 61 1019 vento: Nord SO 18.5
30 Agosto 2026 07:15 tempo osservato: Sereno Sereno 10 57 1019 vento: Nord O/SO 18.5
30 Agosto 2026 06:55 tempo osservato: Sereno Sereno 10 57 1019 vento: Nord SO 16.7
30 Agosto 2026 06:35 tempo osservato: Poco Nuvoloso Poco Nuvoloso 10 57 1018 vento: Nord S/SO 18.5
30 Agosto 2026 06:15 tempo osservato: Poco Nuvoloso Poco Nuvoloso 10 61 1018 vento: Nord SO 18.5
30 Agosto 2026 05:55 tempo osservato: Poco Nuvoloso Poco Nuvoloso 10 61 1018 vento: Nord SO 20.3
30 Agosto 2026 05:35 tempo osservato: Sereno Sereno 11 57 1017 vento: Nord SO 20.3
30 Agosto 2026 05:15 tempo osservato: Sereno Sereno 11 57 1017 vento: Nord SO 24
30 Agosto 2026 04:55 tempo osservato: Poco Nuvoloso Poco Nuvoloso 12 54 1017 vento: Nord SO 20.3
30 Agosto 2026 04:35 tempo osservato: Poco Nuvoloso Poco Nuvoloso 12 50 1017 vento: Nord O/SO 18.5
30 Agosto 2026 04:15 tempo osservato: Sereno Sereno 13 47 1017 vento: Nord O/SO 18.5
30 Agosto 2026 03:55 tempo osservato: Poco Nuvoloso Poco Nuvoloso 13 47 1016 vento: Nord O/SO 20.3
30 Agosto 2026 03:35 tempo osservato: Sereno Sereno 14 47 1016 vento: Nord O/SO 20.3
30 Agosto 2026 03:15 tempo osservato: Sereno Sereno 14 47 1016 vento: Nord O/SO 22.2
30 Agosto 2026 02:55 tempo osservato: Sereno Sereno 14 50 1016 vento: Nord O/SO 18.5
30 Agosto 2026 02:35 tempo osservato: Nuvoloso Nuvoloso 14 54 1015 vento: Nord O/SO 16.7
30 Agosto 2026 02:15 tempo osservato: Nuvoloso Nuvoloso 13 58 1015 vento: Nord O/SO 18.5
30 Agosto 2026 01:55 tempo osservato: Nuvoloso Nuvoloso 14 54 1015 vento: Nord O/SO 16.7
30 Agosto 2026 01:35 tempo osservato: Nuvoloso Nuvoloso 14 62 1015 vento: Nord SO 18.5
30 Agosto 2026 01:15 tempo osservato: Nuvoloso Nuvoloso 16 58 1015 vento: Nord SO 18.5
30 Agosto 2026 00:55 tempo osservato: Poco Nuvoloso Poco Nuvoloso 16 63 1014 vento: Nord S/SO 14.8
30 Agosto 2026 00:35 tempo osservato: Poco Nuvoloso Poco Nuvoloso 17 59 1014 vento: Nord S/SO 13